| time (UTC) | temp F | wind direction | speed MPH | gust MPH | rain 1hr in | rain 24hr in | rain mn in | humidity % | barometer mb |
| 20260906012515 | 89 | 0.0 | 0.0 | 0.00 | 0.00 | 0.00 | 59 | 986.3 | |
| 20260906011515 | 89 | 140 | 0.0 | 2.0 | 0.00 | 0.00 | 0.00 | 58 | 986.1 |
| 20260906010515 | 91 | 145 | 0.0 | 2.0 | 0.00 | 0.00 | 0.00 | 55 | 986.0 |
| 20260906005515 | 92 | 145 | 2.0 | 5.0 | 0.00 | 0.00 | 0.00 | 52 | 985.9 |
| 20260906004515 | 93 | 152 | 2.0 | 6.0 | 0.00 | 0.00 | 0.00 | 51 | 985.7 |
| 20260906003515 | 95 | 167 | 1.0 | 4.0 | 0.00 | 0.00 | 0.00 | 49 | 985.7 |
| 20260906002515 | 96 | 150 | 2.0 | 7.0 | 0.00 | 0.00 | 0.00 | 45 | 985.6 |
| 20260906001515 | 97 | 0.0 | 1.0 | 0.00 | 0.00 | 0.00 | 44 | 985.5 | |
| 20260906000535 | 97 | 156 | 0.0 | 1.0 | 0.00 | 0.00 | 0.00 | 43 | 985.5 |
| 20260905235515 | 98 | 159 | 0.0 | 1.0 | 0.00 | 0.00 | 0.00 | 43 | 985.4 |
| 20260905234535 | 98 | 217 | 0.0 | 3.0 | 0.00 | 0.00 | 0.00 | 43 | 985.3 |
| 20260905233515 | 98 | 71 | 0.0 | 3.0 | 0.00 | 0.00 | 0.00 | 41 | 985.3 |
| 20260905232515 | 98 | 132 | 0.0 | 1.0 | 0.00 | 0.00 | 0.00 | 41 | 985.3 |
| 20260905231515 | 99 | 166 | 1.0 | 4.0 | 0.00 | 0.00 | 0.00 | 40 | 985.3 |
| 20260905230535 | 98 | 78 | 1.0 | 3.0 | 0.00 | 0.00 | 0.00 | 40 | 985.4 |
| 20260905225515 | 98 | 80 | 2.0 | 5.0 | 0.00 | 0.00 | 0.00 | 41 | 985.3 |
| 20260905224515 | 100 | 74 | 0.0 | 5.0 | 0.00 | 0.00 | 0.00 | 39 | 985.2 |
| 20260905223515 | 100 | 160 | 1.0 | 4.0 | 0.00 | 0.00 | 0.00 | 40 | 985.2 |
| 20260905222515 | 100 | 0.0 | 0.0 | 0.00 | 0.00 | 0.00 | 39 | 985.1 | |
| 20260905221515 | 101 | 151 | 1.0 | 2.0 | 0.00 | 0.00 | 0.00 | 38 | 985.2 |
| 20260905220515 | 100 | 75 | 0.0 | 2.0 | 0.00 | 0.00 | 0.00 | 39 | 985.4 |
| 20260905215515 | 101 | 0.0 | 0.0 | 0.00 | 0.00 | 0.00 | 37 | 985.5 | |
| 20260905214535 | 101 | 0.0 | 1.0 | 0.00 | 0.00 | 0.00 | 37 | 985.6 | |
| 20260905213535 | 99 | 0.0 | 0.0 | 0.00 | 0.00 | 0.00 | 38 | 985.6 | |
| 20260905212515 | 99 | 153 | 2.0 | 4.0 | 0.00 | 0.00 | 0.00 | 38 | 985.6 |
| 20260905211515 | 101 | 246 | 0.0 | 1.0 | 0.00 | 0.00 | 0.00 | 38 | 985.8 |
| 20260905210515 | 100 | 185 | 1.0 | 3.0 | 0.00 | 0.00 | 0.00 | 39 | 985.9 |
| 20260905205515 | 99 | 252 | 2.0 | 4.0 | 0.00 | 0.00 | 0.00 | 40 | 986.0 |
| 20260905204535 | 98 | 0.0 | 2.0 | 0.00 | 0.00 | 0.00 | 40 | 986.2 | |
| 20260905203515 | 98 | 84 | 1.0 | 3.0 | 0.00 | 0.00 | 0.00 | 41 | 986.4 |
| 20260905202515 | 100 | 0.0 | 0.0 | 0.00 | 0.00 | 0.00 | 39 | 986.5 | |
| 20260905201515 | 99 | 0.0 | 0.0 | 0.00 | 0.00 | 0.00 | 41 | 986.6 | |
| 20260905200515 | 98 | 0.0 | 0.0 | 0.00 | 0.00 | 0.00 | 42 | 986.7 | |
| 20260905195515 | 98 | 75 | 3.0 | 7.0 | 0.00 | 0.00 | 0.00 | 42 | 986.8 |
| 20260905194535 | 97 | 19 | 0.0 | 2.0 | 0.00 | 0.00 | 0.00 | 43 | 987.0 |
| 20260905193515 | 97 | 90 | 0.0 | 2.0 | 0.00 | 0.00 | 0.00 | 43 | 987.2 |
| 20260905192515 | 96 | 91 | 0.0 | 1.0 | 0.00 | 0.00 | 0.00 | 45 | 987.3 |
| 20260905191515 | 95 | 164 | 2.0 | 4.0 | 0.00 | 0.00 | 0.00 | 47 | 987.6 |
| 20260905190515 | 94 | 0.0 | 0.0 | 0.00 | 0.00 | 0.00 | 48 | 987.7 | |
| 20260905185515 | 94 | 79 | 1.0 | 3.0 | 0.00 | 0.00 | 0.00 | 47 | 987.9 |
| 20260905184515 | 95 | 0.0 | 0.0 | 0.00 | 0.00 | 0.00 | 47 | 988.0 | |
| 20260905183515 | 96 | 0.0 | 0.0 | 0.00 | 0.00 | 0.00 | 47 | 988.2 | |
| 20260905182515 | 96 | 126 | 2.0 | 3.0 | 0.00 | 0.00 | 0.00 | 47 | 988.3 |
| 20260905181515 | 97 | 212 | 0.0 | 2.0 | 0.00 | 0.00 | 0.00 | 46 | 988.4 |
| 20260905180515 | 96 | 0.0 | 0.0 | 0.00 | 0.00 | 0.00 | 48 | 988.5 | |
| 20260905175515 | 94 | 75 | 1.0 | 5.0 | 0.00 | 0.00 | 0.00 | 51 | 988.7 |
| 20260905174535 | 95 | 108 | 2.0 | 6.0 | 0.00 | 0.00 | 0.00 | 49 | 988.9 |
| 20260905173515 | 96 | 0.0 | 0.0 | 0.00 | 0.00 | 0.00 | 49 | 989.0 | |
| 20260905172515 | 95 | 0.0 | 0.0 | 0.00 | 0.00 | 0.00 | 49 | 989.0 | |
| 20260905171515 | 95 | 146 | 1.0 | 3.0 | 0.00 | 0.00 | 0.00 | 50 | 989.3 |
| 20260905170515 | 95 | 248 | 0.0 | 1.0 | 0.00 | 0.00 | 0.00 | 50 | 989.3 |
| 20260905165515 | 94 | 159 | 0.0 | 2.0 | 0.00 | 0.00 | 0.00 | 52 | 989.3 |
| 20260905164515 | 94 | 0.0 | 1.0 | 0.00 | 0.00 | 0.00 | 51 | 989.4 | |
| 20260905163515 | 93 | 0.0 | 0.0 | 0.00 | 0.00 | 0.00 | 53 | 989.5 | |
| 20260905162515 | 92 | 199 | 0.0 | 1.0 | 0.00 | 0.00 | 0.00 | 54 | 989.4 |
| 20260905161515 | 92 | 0.0 | 1.0 | 0.00 | 0.00 | 0.00 | 55 | 989.5 | |
| 20260905160515 | 92 | 277 | 0.0 | 1.0 | 0.00 | 0.00 | 0.00 | 56 | 989.4 |
| 20260905155515 | 90 | 0.0 | 0.0 | 0.00 | 0.00 | 0.00 | 59 | 989.5 | |
| 20260905154515 | 90 | 252 | 2.0 | 6.0 | 0.00 | 0.00 | 0.00 | 59 | 989.4 |
| 20260905153515 | 89 | 0.0 | 3.0 | 0.00 | 0.00 | 0.00 | 62 | 989.4 | |
| 20260905152515 | 88 | 273 | 1.0 | 5.0 | 0.00 | 0.00 | 0.00 | 63 | 989.4 |
| 20260905151535 | 88 | 264 | 2.0 | 5.0 | 0.00 | 0.00 | 0.00 | 64 | 989.3 |
| 20260905150535 | 88 | 227 | 0.0 | 1.0 | 0.00 | 0.00 | 0.00 | 65 | 989.3 |
| 20260905145515 | 88 | 0.0 | 4.0 | 0.00 | 0.00 | 0.00 | 66 | 989.2 | |
| 20260905144515 | 87 | 287 | 2.0 | 5.0 | 0.00 | 0.00 | 0.00 | 67 | 989.2 |
| 20260905143515 | 87 | 274 | 2.0 | 5.0 | 0.00 | 0.00 | 0.00 | 68 | 989.2 |
| 20260905142515 | 86 | 261 | 2.0 | 6.0 | 0.00 | 0.00 | 0.00 | 70 | 989.1 |
| 20260905141515 | 86 | 291 | 2.0 | 3.0 | 0.00 | 0.00 | 0.00 | 69 | 989.3 |
| 20260905140515 | 85 | 0.0 | 1.0 | 0.00 | 0.00 | 0.00 | 71 | 989.2 | |
| 20260905135515 | 85 | 218 | 2.0 | 5.0 | 0.00 | 0.00 | 0.00 | 72 | 989.3 |
| 20260905134515 | 84 | 261 | 2.0 | 7.0 | 0.00 | 0.00 | 0.00 | 73 | 989.0 |
| 20260905133515 | 83 | 276 | 2.0 | 4.0 | 0.00 | 0.00 | 0.00 | 74 | 989.0 |
| 20260905132515 | 83 | 0.0 | 0.0 | 0.00 | 0.00 | 0.00 | 77 | 988.9 | |
| 20260905131515 | 82 | 0.0 | 0.0 | 0.00 | 0.00 | 0.00 | 78 | 988.9 | |
| 20260905130515 | 82 | 0.0 | 2.0 | 0.00 | 0.00 | 0.00 | 78 | 988.8 | |
| 20260905125515 | 81 | 0.0 | 0.0 | 0.00 | 0.00 | 0.00 | 80 | 988.7 | |
| 20260905124515 | 80 | 0.0 | 0.0 | 0.00 | 0.00 | 0.00 | 82 | 988.6 | |
| 20260905123515 | 80 | 0.0 | 0.0 | 0.00 | 0.00 | 0.00 | 82 | 988.3 | |
| 20260905122515 | 79 | 0.0 | 0.0 | 0.00 | 0.00 | 0.00 | 83 | 988.3 | |
| 20260905121515 | 79 | 0.0 | 0.0 | 0.00 | 0.00 | 0.00 | 83 | 988.2 | |
| 20260905120515 | 79 | 0.0 | 0.0 | 0.00 | 0.00 | 0.00 | 84 | 988.3 | |
| 20260905115515 | 78 | 0.0 | 0.0 | 0.00 | 0.00 | 0.00 | 84 | 988.4 | |
| 20260905114515 | 79 | 0.0 | 0.0 | 0.00 | 0.00 | 0.00 | 83 | 988.3 | |
| 20260905113515 | 79 | 0.0 | 0.0 | 0.00 | 0.00 | 0.00 | 82 | 988.4 | |
| 20260905112515 | 80 | 0.0 | 0.0 | 0.00 | 0.00 | 0.00 | 80 | 988.4 | |
| 20260905111535 | 80 | 0.0 | 0.0 | 0.00 | 0.00 | 0.00 | 78 | 988.4 | |
| 20260905110515 | 81 | 0.0 | 0.0 | 0.00 | 0.00 | 0.00 | 77 | 988.4 | |
| 20260905105535 | 81 | 0.0 | 0.0 | 0.00 | 0.00 | 0.00 | 77 | 988.4 | |
| 20260905104555 | 81 | 0.0 | 0.0 | 0.00 | 0.00 | 0.00 | 76 | 988.2 | |
| 20260905103515 | 81 | 0.0 | 0.0 | 0.00 | 0.00 | 0.00 | 75 | 988.3 | |
| 20260905102555 | 82 | 221 | 0.0 | 1.0 | 0.00 | 0.00 | 0.00 | 75 | 988.3 |
| 20260905101515 | 82 | 0.0 | 0.0 | 0.00 | 0.00 | 0.00 | 74 | 988.3 | |
| 20260905100515 | 82 | 0.0 | 1.0 | 0.00 | 0.00 | 0.00 | 73 | 988.2 | |
| 20260905095535 | 82 | 0.0 | 0.0 | 0.00 | 0.00 | 0.00 | 73 | 988.1 | |
| 20260905094535 | 82 | 0.0 | 0.0 | 0.00 | 0.00 | 0.00 | 72 | 988.1 | |
| 20260905093535 | 82 | 0.0 | 0.0 | 0.00 | 0.00 | 0.00 | 72 | 988.0 | |
| 20260905092515 | 82 | 0.0 | 0.0 | 0.00 | 0.00 | 0.00 | 72 | 988.0 | |
| 20260905091515 | 82 | 0.0 | 0.0 | 0.00 | 0.00 | 0.00 | 71 | 988.0 | |
| 20260905090535 | 83 | 0.0 | 0.0 | 0.00 | 0.00 | 0.00 | 70 | 988.0 | |
| 20260905085515 | 83 | 0.0 | 2.0 | 0.00 | 0.00 | 0.00 | 70 | 987.9 | |
| 20260905084515 | 83 | 0.0 | 0.0 | 0.00 | 0.00 | 0.00 | 70 | 987.8 | |
| 20260905083535 | 83 | 0.0 | 0.0 | 0.00 | 0.00 | 0.00 | 70 | 987.7 | |
| 20260905082515 | 83 | 0.0 | 0.0 | 0.00 | 0.00 | 0.00 | 70 | 987.7 | |
| 20260905081515 | 83 | 0.0 | 0.0 | 0.00 | 0.00 | 0.00 | 69 | 987.7 | |
| 20260905080535 | 84 | 0.0 | 0.0 | 0.00 | 0.00 | 0.00 | 69 | 987.6 | |
| 20260905075515 | 84 | 0.0 | 0.0 | 0.00 | 0.00 | 0.00 | 68 | 987.7 | |
| 20260905074515 | 84 | 0.0 | 0.0 | 0.00 | 0.00 | 0.00 | 68 | 987.8 | |
| 20260905073515 | 84 | 0.0 | 0.0 | 0.00 | 0.00 | 0.00 | 68 | 987.8 | |
| 20260905072515 | 84 | 0.0 | 0.0 | 0.00 | 0.00 | 0.00 | 69 | 987.9 | |
| 20260905071515 | 84 | 0.0 | 0.0 | 0.00 | 0.00 | 0.00 | 70 | 988.0 | |
| 20260905070555 | 84 | 0.0 | 0.0 | 0.00 | 0.00 | 0.00 | 70 | 988.0 | |
| 20260905065515 | 84 | 0.0 | 0.0 | 0.00 | 0.00 | 0.00 | 70 | 988.0 | |
| 20260905064535 | 84 | 0.0 | 0.0 | 0.00 | 0.00 | 0.00 | 70 | 988.2 | |
| 20260905063515 | 85 | 0.0 | 0.0 | 0.00 | 0.00 | 0.00 | 69 | 988.2 | |
| 20260905062515 | 85 | 0.0 | 0.0 | 0.00 | 0.00 | 0.00 | 68 | 988.2 | |
| 20260905061515 | 85 | 0.0 | 0.0 | 0.00 | 0.00 | 0.00 | 67 | 988.2 | |
| 20260905060555 | 86 | 0.0 | 0.0 | 0.00 | 0.00 | 0.00 | 66 | 988.1 | |
| 20260905055515 | 86 | 0.0 | 0.0 | 0.00 | 0.00 | 0.00 | 65 | 988.1 | |
| 20260905054535 | 86 | 0.0 | 0.0 | 0.00 | 0.00 | 0.00 | 65 | 988.1 | |
| 20260905053515 | 86 | 0.0 | 0.0 | 0.00 | 0.00 | 0.00 | 65 | 988.0 | |
| 20260905052515 | 86 | 0.0 | 0.0 | 0.00 | 0.00 | 0.00 | 65 | 987.8 | |
| 20260905051515 | 86 | 0.0 | 0.0 | 0.00 | 0.00 | 0.00 | 64 | 987.8 | |
| 20260905050535 | 87 | 0.0 | 0.0 | 0.00 | 0.00 | 0.00 | 63 | 987.8 | |
| 20260905045515 | 87 | 0.0 | 0.0 | 0.00 | 0.00 | 0.00 | 63 | 987.8 | |
| 20260905044536 | 87 | 203 | 0.0 | 1.0 | 0.00 | 0.00 | 0.00 | 63 | 987.9 |
| 20260905043516 | 88 | 0.0 | 3.0 | 0.00 | 0.00 | 0.00 | 61 | 987.8 | |
| 20260905042515 | 88 | 0.0 | 2.0 | 0.00 | 0.00 | 0.00 | 61 | 987.8 | |
| 20260905041515 | 88 | 0.0 | 0.0 | 0.00 | 0.00 | 0.00 | 60 | 987.8 | |
| 20260905040516 | 88 | 0.0 | 3.0 | 0.00 | 0.00 | 0.00 | 59 | 987.8 | |
| 20260905035515 | 88 | 0.0 | 0.0 | 0.00 | 0.00 | 0.00 | 59 | 987.8 | |
| 20260905034515 | 88 | 0.0 | 0.0 | 0.00 | 0.00 | 0.00 | 58 | 987.8 | |
| 20260905033516 | 88 | 0.0 | 0.0 | 0.00 | 0.00 | 0.00 | 58 | 987.9 | |
| 20260905032515 | 88 | 0.0 | 0.0 | 0.00 | 0.00 | 0.00 | 58 | 987.8 | |
| 20260905031535 | 88 | 0.0 | 0.0 | 0.00 | 0.00 | 0.00 | 58 | 987.9 | |
| 20260905030515 | 88 | 0.0 | 0.0 | 0.00 | 0.00 | 0.00 | 57 | 987.7 | |
| 20260905025536 | 89 | 0.0 | 0.0 | 0.00 | 0.00 | 0.00 | 56 | 987.6 | |
| 20260905024515 | 89 | 0.0 | 0.0 | 0.00 | 0.00 | 0.00 | 55 | 987.5 | |
| 20260905023515 | 89 | 0.0 | 0.0 | 0.00 | 0.00 | 0.00 | 55 | 987.5 | |
| 20260905022555 | 90 | 0.0 | 0.0 | 0.00 | 0.00 | 0.00 | 54 | 987.2 | |
| 20260905021515 | 90 | 0.0 | 0.0 | 0.00 | 0.00 | 0.00 | 53 | 987.1 | |
| 20260905020515 | 90 | 0.0 | 0.0 | 0.00 | 0.00 | 0.00 | 52 | 986.9 | |
| 20260905015515 | 91 | 0.0 | 0.0 | 0.00 | 0.00 | 0.00 | 52 | 986.8 | |
| 20260905014515 | 91 | 0.0 | 0.0 | 0.00 | 0.00 | 0.00 | 51 | 986.6 | |
| 20260905013515 | 91 | 0.0 | 0.0 | 0.00 | 0.00 | 0.00 | 51 | 986.5 |